User: anonymous   Login
Location: Eaton
(41.3139°N, 82.0207°W)
Time: 01:33:21
(UTC+00:00)
Language:

Cosmos 1891 Rocket - Orbit

View from above orbital plane
View from above orbital plane
View from above satellite
View from above satellite

Ground track
Ground track

The orbit data is extracted from the following two-line orbital elements,

1 18403U 87087B   21269.57340065  .00000056  00000-0  40442-4 0  9995
2 18403  82.9232   8.0435 0058644 133.6916 226.9122 13.76558601704995
Epoch (UTC): 26 September 2021 13:45:41
Eccentricity: 0.0058644
inclination: 82.9232°
perigee height: 933 km
apogee height: 1019 km
right ascension of ascending node: 8.0435°
argument of perigee: 133.6916°
revolutions per day: 13.76558601
mean anomaly at epoch: 226.9122°
orbit number at epoch: 70499

The dashed part of the orbit path shows where the satellite is in the earth's shadow,  

DLR